CYRB

Resolute

Airport
ICAO code
CYRB
Summary
ICAO Region
NAM
ICAO Territory
Location

Resolute, Nunavut,

Coordinates
74° 43' 1" N , 94° 58' 10" W
KCC
Airport BS
Non Avian Wildlife Hazards to Aircraft
Airport CFIT
Altimeter Temperature Error Correction
Airport GND
Aircraft Ground De/Anti Icing
Airport WX
Fog
Metar
CYRB 231300Z 09014KT 30SM BKN008 BKN011 OVC018 M02/M04 A2990 RMK ST6ST1SC1 SLP136

Description

Airport serving Resolute, Nunavut.

Climatology

Tundra climate (Köppen climate classification ET) - warmest month has an average temperature of 0 - 10 degrees C.

Runways

Designator Length Width Surface Rops
17T/35T 1981 61 GVL No/No

Airport map

Aerial View

SKYbrary Partners:

Safety knowledge contributed by: